Regional Weather Roundup
Issued by NWS Goodland, KS

Home | Current Version | Previous Version | Graphics & Text | Print | Product List | Glossary On
Versions: 1 2 3 4 5 6 7 8 9 10 11 12 13 14 15 16 17 18 19 20 21 22 23 24 25 26 27 28 29 30 31 32 33 34 35 36 37 38 39 40 41 42 43 44 45 46 47 48 49 50
443
ASUS43 KGLD 250208
RWRGLD

GOODLAND FORECAST AREA HOURLY WEATHER ROUNDUP
NATIONAL WEATHER SERVICE GOODLAND KS
800 PM MDT TUE APR 24 2018

...OFFICIAL OBSERVATIONS...

CITY           SKY/WX    TMP DP  RH WIND       PRES   REMARKS
GOODLAND KS    CLOUDY    39  35  86 N14       30.37R
HILL CITY KS   CLOUDY    44  39  82 NW14G24   30.33R
IMPERIAL NEB   MOCLDY    38  33  82 N13       30.37S
MCCOOK NEB     CLOUDY    41  35  79 N21G30    30.35R
AKRON CO       CLOUDY    37  30  75 N13       30.38R
BURLINGTON CO  CLOUDY    38  34  85 N12       30.38R
LIMON CO       CLOUDY    36  31  82 N9        30.39R
$$

...UNOFFICIAL OBSERVATIONS...

CITY           SKY/WX    TMP DP  RH WIND       PRES   REMARKS
COLBY KS       CLOUDY    37  37 100 N14G23    30.36S
NORTON KS      CLOUDY    41  37  87 NW16      30.31
SHARON SPRINGS   N/A     39  37  91 NW15G24     N/A
TRIBUNE KS     CLOUDY    39  36  87 NW15      30.37
KIT CARSON CO    N/A     38  33  82 MISG        N/A
YUMA CO        FAIR      36  30  80 N9        30.38R
$$




USA.gov is the U.S. government's official web portal to all federal, state and local government web resources and services.